Temp
99 99 93 94 94 96 94 92 91 92 91 92 92 93 94 93 90 89 88 85 84 84 85 85 85 85 85 85 85 85 86 86 85 86 86 86 86 86 86 87 87 86 87 87 87 86 87 88 88 88 87 87 87 87 86 86 86 87 86 86 86 85 84
97 98 98 97 95 94 93 91 91 93 94 94 93 92 94 92 90 89 87 86 85 85 85 85 85 85 85 85 85 85 85 86 86 85 86 85 85 86 87 87 86 86 86 87 87 87 88 89 89 88 88 87 88 87 88 87 86 86 86 85 85 84 85
97 100 99 94 94 95 92 93 92 93 94 95 95 94 93 90 90 89 88 87 85 85 86 86 85 86 86 85 85 85 86 86 86 86 86 87 87 89 88 87 87 88 88 88 88 89 89 89 88 88 88 87 89 87 87 87 86 86 86 85 85 85 84
97 99 101 99 96 94 94 93 90 93 95 94 95 95 93 90 92 90 89 88 86 86 85 86 86 87 86 85 85 85 85 86 86 87 88 88 88 88 88 87 87 89 88 88 91 91 91 89 89 88 88 87 87 88 88 87 88 86 86 85 84 85 84
98 99 101 99 96 95 95 95 94 94 97 98 97 94 94 94 94 93 92 90 89 87 87 88 89 88 87 87 87 87 86 86 86 87 88 88 88 88 88 89 89 89 89 90 89 88 87 88 89 88 88 87 88 87 87 87 87 86 86 86 84 85 84
97 97 98 100 98 98 99 100 100 99 98 99 97 96 97 97 97 96 94 91 90 90 89 88 88 87 87 88 88 88 87 86 86 86 87 87 87 88 88 89 90 90 91 89 90 90 89 89 89 89 89 90 90 89 89 88 88 88 86 85 84 85 85
97 98 98 100 101 99 100 100 101 100 100 100 100 99 98 98 97 96 96 93 92 89 90 89 90 89 87 88 87 87 86 87 87 88 88 89 89 88 88 88 89 90 90 89 89 90 90 89 89 88 89 90 88 89 87 86 86 87 86 85 84 84 84
98 98 99 101 103 102 101 99 100 101 100 101 101 99 98 98 98 97 96 95 93 93 91 91 90 89 88 88 88 88 88 88 89 88 88 89 89 88 89 89 89 89 89 90 90 90 91 89 91 89 89 90 88 87 88 86 85 88 86 85 84 84 86
102 98 101 103 104 105 103 100 99 96 94 96 98 98 98 98 98 97 97 96 95 94 93 93 92 92 89 88 88 88 89 89 88 88 88 90 90 91 91 91 90 90 90 91 92 91 90 90 91 88 88 88 87 86 87 86 87 87 86 85 84 84 85
100 96 98 102 103 104 100 99 97 93 92 93 95 95 97 97 97 98 98 97 97 95 95 94 94 93 91 90 90 90 89 88 88 90 90 90 91 91 92 93 92 91 91 92 93 92 90 90 90 88 87 88 87 87 87 87 87 87 87 85 85 84 84
100 95 96 100 100 99 96 97 94 91 92 91 93 98 96 97 97 98 98 98 98 97 97 96 95 95 93 92 91 91 89 90 90 90 90 90 92 92 93 93 93 92 92 93 92 93 91 89 89 88 87 88 88 87 87 87 87 86 88 87 86 86 85
94 96 93 96 97 97 96 93 92 90 90 91 95 99 95 94 98 99 99 98 99 99 97 97 97 96 94 93 92 90 90 90 90 91 91 91 92 93 94 94 94 93 93 93 92 92 93 90 90 89 87 87 88 88 87 87 87 86 87 88 88 86 86
96 93 94 98 97 96 92 89 90 90 90 95 99 99 99 99 98 99 96 97 100 100 99 97 97 95 95 93 93 90 91 90 90 91 92 90 92 94 94 94 95 95 94 93 93 93 94 93 90 89 88 87 88 88 87 87 87 86 86 87 86 86 86
95 99 97 96 96 94 91 90 90 91 92 96 98 99 100 100 100 98 97 98 99 101 101 100 97 96 94 93 91 90 91 90 91 91 90 90 89 91 94 94 94 93 93 93 92 93 94 94 91 90 90 89 88 88 88 87 87 86 86 86 87 86 86
98 99 98 98 92 91 92 92 90 91 93 94 97 97 98 100 100 98 97 99 98 102 101 99 97 95 96 93 90 89 89 89 91 91 89 90 89 90 91 92 92 92 92 91 92 93 94 95 94 91 89 89 88 88 88 88 88 88 87 86 86 87 87
100 99 98 97 95 95 92 93 93 92 92 92 95 95 99 98 96 98 99 99 101 98 101 98 96 94 95 94 90 89 89 89 89 89 89 89 88 88 89 92 92 93 92 91 92 91 91 91 91 93 90 89 88 88 88 88 88 81 74 77 86 86 87
99 99 98 98 92 95 93 93 93 92 91 91 92 94 95 96 97 100 102 102 102 99 101 101 95 95 94 92 91 90 89 89 88 88 87 88 88 88 88 89 90 90 89 89 90 90 89 90 91 93 92 90 90 89 88 89 88 73 69 71 75 84 86
99 96 98 98 96 95 93 95 93 92 93 95 96 95 96 94 98 100 101 102 102 103 103 102 98 96 91 92 90 90 89 89 88 88 87 88 87 88 88 88 88 88 88 89 89 88 90 90 90 90 92 91 91 90 89 89 77 69 68 69 70 75 86
98 101 99 94 94 93 97 97 96 93 96 98 97 97 99 98 99 96 97 97 99 101 103 102 101 94 91 92 91 89 89 89 88 88 87 87 88 88 88 87 88 88 89 89 90 90 88 88 90 89 90 91 89 90 90 90 75 67 67 68 68 69 78
98 99 101 102 102 101 98 97 98 96 98 97 98 102 101 99 99 98 100 101 99 100 97 96 96 94 93 91 90 90 89 89 88 88 87 88 88 88 87 87 87 89 91 91 89 88 89 90 89 89 88 90 89 88 91 90 75 66 65 66 66 68 73
96 97 97 98 97 100 97 96 94 99 96 102 102 99 100 99 101 99 100 99 99 98 93 94 94 94 92 90 90 90 89 89 88 88 88 88 88 87 87 87 87 88 90 92 91 89 88 89 89 89 89 91 92 90 91 93 72 64 63 64 64 66 69
99 100 99 99 96 94 96 102 99 102 98 101 103 105 102 102 103 103 102 103 100 99 97 94 92 93 91 90 90 90 90 90 88 88 88 88 87 87 87 87 87 87 88 89 91 91 92 90 91 90 90 90 91 92 90 94 71 63 62 62 63 64 73
102 101 98 97 103 102 96 98 100 100 96 99 103 105 106 105 104 103 102 101 101 97 99 96 91 91 91 90 92 92 91 90 90 88 87 88 87 87 87 87 87 87 88 89 91 92 91 90 92 90 91 90 89 89 89 93 76 61 61 61 61 64 76
102 100 99 99 97 102 94 94 97 99 101 99 98 100 100 104 104 100 97 98 99 98 98 96 93 92 91 91 91 91 91 90 89 88 88 87 87 87 88 89 89 89 88 89 90 92 93 92 91 92 91 91 90 91 90 91 79 59 59 59 59 66 77
96 96 97 97 95 94 95 92 92 95 96 96 97 98 99 100 100 102 96 95 101 100 97 94 93 93 92 92 93 92 91 91 90 89 89 87 87 88 88 88 88 89 89 91 91 91 91 91 91 92 91 94 93 80 87 92 82 59 59 57 58 65 78
93 93 93 96 96 94 92 91 92 94 96 97 95 97 96 100 98 94 94 98 101 100 96 94 94 93 94 94 93 92 92 92 89 89 89 88 88 89 89 89 90 90 90 90 91 91 92 92 92 91 92 93 92 93 90 90 91 74 56 56 56 59 77
94 93 92 93 93 89 93 93 95 95 96 94 92 96 99 100 97 93 93 93 93 94 97 96 94 93 93 92 94 94 92 92 91 89 89 90 89 90 90 91 90 90 89 90 91 90 89 91 92 93 91 92 92 93 93 93 91 81 55 55 55 56 65
91 92 93 92 91 92 94 94 93 94 97 97 97 97 97 94 91 92 92 93 92 94 98 95 93 93 92 91 92 93 93 92 91 91 91 89 88 88 88 89 90 90 90 91 89 87 87 87 88 90 91 92 91 89 89 88 80 89 58 56 54 56 57
87 88 88 90 92 94 93 91 91 93 94 97 94 92 93 95 92 91 91 91 93 96 97 96 94 92 91 90 91 90 91 91 90 90 92 90 89 88 88 88 89 89 88 87 87 86 87 86 86 87 87 87 87 88 88 89 84 74 70 55 54 54 55
87 87 89 92 94 91 90 90 91 91 92 91 89 90 91 90 88 90 90 91 95 95 98 96 93 91 91 90 90 91 92 92 91 91 91 90 89 88 87 87 88 88 87 86 86 86 85 86 85 86 87 87 87 90 90 88 90 75 65 62 54 54 54
85 86 88 89 90 87 88 90 90 90 89 88 88 89 89 90 90 91 91 93 95 95 95 96 92 91 90 91 91 90 92 92 91 90 90 90 90 87 87 87 88 86 87 86 87 86 85 84 86 85 85 85 85 87 88 89 88 90 69 60 55 55 53
85 87 89 90 87 85 86 90 91 90 89 89 90 89 89 90 92 90 87 90 92 95 94 94 92 90 90 91 91 91 93 92 92 90 89 90 91 89 88 89 88 87 86 87 87 86 85 84 86 85 85 85 87 86 88 87 88 88 81 63 59 56 54
84 83 84 83 84 84 85 87 90 88 86 84 87 91 93 91 90 87 87 88 92 94 94 92 91 89 89 90 91 90 90 90 91 90 90 90 92 92 90 90 89 88 86 87 88 87 85 86 86 86 85 85 86 86 86 87 87 87 84 75 72 70 68
82 82 82 82 83 84 84 85 86 85 83 82 85 86 89 89 89 89 90 92 93 92 91 90 89 90 90 91 91 89 90 90 89 89 91 90 92 93 93 91 91 90 86 86 87 85 84 85 85 84 86 86 87 86 86 86 85 72 74 75 76 77 75
82 82 82 82 82 82 81 80 82 81 82 82 84 84 84 83 84 86 89 89 91 89 89 88 89 89 91 92 92 91 89 92 91 92 91 90 77 66 64 69 82 87 77 68 70 81 88 88 86 87 89 89 83 82 82 80 71 65 53 56 51 58 74
81 82 82 83 83 83 82 81 80 80 80 80 81 82 82 83 83 83 85 85 86 89 87 87 87 88 89 91 92 93 91 91 93 92 91 90 81 76 70 58 49 60 77 73 59 52 53 61 75 76 81 75 72 73 74 71 66 49 44 44 44 45 43
80 81 82 83 82 81 80 80 80 80 79 79 80 80 81 81 82 83 84 85 85 87 88 87 84 84 83 83 81 82 87 90 91 90 89 89 83 79 74 71 64 47 46 54 54 50 46 45 47 51 59 72 68 59 51 51 46 43 44 44 43 42 43
81 81 82 83 81 79 79 79 78 78 78 80 80 80 80 80 81 81 84 84 85 84 84 83 82 81 82 82 82 82 83 84 85 88 85 84 83 80 77 75 70 66 50 46 49 48 45 46 47 49 51 55 63 69 67 55 46 44 44 44 43 44 43
MSLP
998.43 998.85 999.95 1000.03 1000.31 1000.51 1001.35 1002.03 1002.35 1002.91 1003.11 1003.31 1003.63 1003.97 1004.31 1004.69 1004.93 1005.13 1005.63 1006.05 1006.53 1006.95 1007.05 1007.27 1007.63 1008.03 1008.49 1008.83 1009.09 1009.35 1009.61 1009.99 1010.29 1010.69 1010.97 1011.15 1011.27 1011.49 1011.79 1011.93 1012.25 1012.41 1012.41 1012.77 1012.87 1012.95 1012.91 1012.87 1013.11 1013.33 1013.55 1013.81 1014.09 1014.23 1014.35 1014.51 1014.79 1014.93 1015.11 1015.25 1015.49 1015.73 1015.97
998.59 998.45 998.73 999.21 999.81 1000.15 1000.69 1001.25 1001.63 1002.09 1002.55 1002.63 1003.21 1003.67 1003.93 1004.33 1004.49 1004.81 1005.09 1005.33 1005.69 1006.07 1006.43 1006.73 1007.13 1007.47 1007.83 1008.23 1008.49 1008.85 1009.29 1009.53 1009.77 1010.09 1010.41 1010.77 1010.87 1010.99 1011.05 1011.37 1011.69 1011.97 1012.01 1012.05 1012.23 1012.35 1012.47 1012.57 1012.71 1013.03 1013.29 1013.51 1013.81 1013.91 1014.09 1014.29 1014.53 1014.77 1015.01 1015.21 1015.53 1015.75 1015.87
998.01 997.63 997.93 998.97 999.59 999.91 1000.31 1000.65 1000.87 1001.15 1001.69 1002.29 1002.71 1003.21 1003.41 1003.55 1003.57 1003.89 1004.41 1005.01 1005.55 1005.77 1005.83 1006.07 1006.33 1006.75 1007.15 1007.59 1008.11 1008.43 1008.67 1009.01 1009.41 1009.75 1010.13 1010.33 1010.47 1010.53 1010.61 1010.83 1011.09 1011.37 1011.47 1011.53 1011.67 1011.95 1012.01 1012.29 1012.37 1012.57 1012.85 1013.23 1013.49 1013.73 1013.87 1014.11 1014.29 1014.53 1014.77 1014.99 1015.33 1015.65 1015.83
996.91 996.89 996.83 997.35 998.15 998.79 999.29 999.97 1000.73 1000.79 1001.15 1001.87 1002.09 1002.15 1002.39 1002.85 1003.01 1003.43 1003.79 1004.25 1004.91 1005.37 1005.83 1005.89 1006.05 1006.33 1006.57 1007.03 1007.51 1007.89 1008.25 1008.49 1008.69 1008.99 1009.25 1009.51 1009.89 1010.05 1010.37 1010.55 1010.67 1010.81 1011.19 1011.31 1011.25 1011.37 1011.51 1011.79 1012.11 1012.31 1012.49 1012.87 1013.19 1013.39 1013.65 1013.89 1014.09 1014.33 1014.55 1014.79 1015.17 1015.31 1015.53
995.87 996.23 996.25 996.91 997.95 998.53 998.95 999.39 1000.05 1000.37 1000.43 1000.53 1000.91 1001.43 1001.77 1002.35 1002.85 1003.25 1003.65 1004.01 1004.31 1004.63 1004.65 1004.99 1005.27 1005.61 1005.93 1006.23 1006.71 1007.11 1007.53 1007.89 1008.19 1008.37 1008.65 1008.87 1009.19 1009.59 1009.99 1010.17 1010.31 1010.47 1010.55 1010.77 1010.93 1011.11 1011.29 1011.53 1011.81 1012.07 1012.33 1012.51 1012.87 1013.13 1013.41 1013.57 1013.87 1014.09 1014.39 1014.59 1015.03 1015.09 1015.35
995.69 996.23 996.37 996.47 997.09 997.51 997.95 998.21 998.65 999.15 999.63 1000.09 1000.57 1001.21 1001.55 1001.87 1002.19 1002.71 1003.05 1003.63 1004.03 1004.21 1004.43 1004.69 1004.97 1005.33 1005.89 1006.03 1006.27 1006.59 1006.93 1007.27 1007.49 1007.77 1008.11 1008.43 1008.83 1009.27 1009.51 1009.59 1009.75 1009.99 1010.27 1010.39 1010.45 1010.75 1010.93 1011.19 1011.41 1011.71 1012.11 1012.27 1012.53 1012.83 1013.05 1013.39 1013.55 1013.75 1014.11 1014.39 1014.71 1014.87 1015.09
995.17 995.53 995.91 995.87 996.25 997.07 997.41 997.65 997.93 998.59 999.13 999.53 999.93 1000.53 1001.05 1001.29 1001.63 1001.91 1002.37 1003.01 1003.39 1003.95 1004.19 1004.47 1004.55 1004.73 1005.11 1005.37 1005.73 1006.11 1006.63 1006.95 1007.23 1007.55 1007.71 1008.07 1008.33 1008.73 1008.91 1009.05 1009.23 1009.43 1009.61 1009.85 1010.25 1010.33 1010.71 1010.93 1011.05 1011.27 1011.61 1011.95 1012.25 1012.47 1012.79 1013.11 1013.35 1013.41 1013.75 1014.15 1014.51 1014.61 1014.71
994.67 995.09 995.23 995.39 995.49 996.05 996.71 997.21 997.71 998.13 998.83 999.35 999.71 1000.23 1000.71 1000.67 1001.05 1001.55 1001.85 1002.11 1002.63 1003.13 1003.55 1003.83 1004.11 1004.25 1004.51 1004.73 1005.03 1005.53 1005.99 1006.35 1006.55 1006.89 1007.23 1007.67 1007.93 1008.25 1008.41 1008.63 1008.85 1008.93 1009.25 1009.67 1009.71 1009.87 1010.25 1010.51 1010.61 1010.85 1011.17 1011.59 1011.93 1012.17 1012.37 1012.67 1012.93 1013.07 1013.37 1013.85 1014.19 1014.41 1014.37
993.55 994.13 994.63 994.81 994.93 995.31 996.01 996.81 997.23 997.85 998.67 999.41 999.53 999.59 1000.03 1000.37 1000.53 1000.69 1001.05 1001.51 1001.91 1002.37 1002.75 1002.85 1003.21 1003.47 1003.95 1004.39 1004.81 1005.15 1005.39 1005.69 1006.09 1006.41 1006.83 1007.21 1007.41 1007.73 1007.87 1008.07 1008.29 1008.39 1008.87 1009.13 1009.29 1009.39 1009.67 1010.01 1010.23 1010.51 1010.79 1011.19 1011.51 1011.83 1012.05 1012.23 1012.49 1012.61 1012.91 1013.33 1013.67 1013.97 1014.07
993.31 994.31 994.49 994.41 994.33 994.73 995.63 996.37 996.97 997.61 998.31 998.91 998.99 999.31 999.63 999.77 999.91 1000.25 1000.59 1000.79 1001.11 1001.63 1001.87 1002.21 1002.51 1002.91 1003.51 1004.05 1004.43 1004.63 1005.01 1005.43 1005.65 1005.99 1006.31 1006.75 1006.85 1007.19 1007.29 1007.45 1007.73 1007.93 1008.35 1008.61 1008.79 1009.15 1009.29 1009.49 1009.87 1010.19 1010.53 1010.87 1011.17 1011.45 1011.65 1011.85 1012.01 1012.21 1012.39 1012.75 1013.09 1013.43 1013.63
993.09 994.03 994.41 994.57 994.57 994.87 995.65 996.37 997.17 997.57 997.79 998.19 998.47 998.69 999.11 999.53 999.77 999.89 1000.07 1000.25 1000.55 1000.89 1001.21 1001.65 1001.83 1002.35 1002.89 1003.49 1004.09 1004.35 1004.69 1005.03 1005.27 1005.67 1005.97 1006.23 1006.37 1006.65 1006.79 1006.99 1007.27 1007.53 1007.93 1008.19 1008.51 1008.61 1008.93 1009.27 1009.41 1009.91 1010.25 1010.55 1010.75 1010.97 1011.17 1011.31 1011.49 1011.81 1012.01 1012.19 1012.39 1012.75 1013.03
993.25 993.37 994.17 994.29 994.39 995.05 995.63 996.19 996.73 997.43 997.81 997.95 998.05 998.29 998.71 999.09 999.29 999.39 999.55 999.73 999.85 1000.47 1000.85 1001.09 1001.27 1001.71 1002.37 1002.87 1003.49 1003.89 1004.29 1004.59 1004.83 1005.17 1005.51 1005.75 1005.87 1006.07 1006.25 1006.45 1006.75 1007.09 1007.37 1007.67 1008.09 1008.23 1008.37 1008.83 1009.07 1009.35 1009.79 1009.95 1010.13 1010.31 1010.55 1010.71 1010.97 1011.27 1011.53 1011.73 1011.93 1012.25 1012.51
993.69 993.89 994.11 994.41 994.55 994.99 995.27 995.99 996.47 996.81 997.13 997.29 997.31 997.57 997.95 998.43 998.81 998.91 999.13 999.43 999.49 999.63 1000.05 1000.41 1000.77 1001.21 1001.79 1002.29 1002.75 1003.21 1003.57 1003.83 1004.11 1004.37 1004.73 1004.99 1005.25 1005.37 1005.69 1005.99 1006.21 1006.51 1006.89 1007.03 1007.43 1007.81 1008.01 1008.19 1008.57 1008.71 1009.05 1009.39 1009.57 1009.81 1009.99 1010.23 1010.45 1010.77 1011.07 1011.29 1011.51 1011.83 1012.17
993.97 994.19 994.53 994.43 994.83 995.43 996.15 996.35 996.51 996.75 996.89 996.95 997.07 997.21 997.49 997.69 998.03 998.41 998.69 999.11 999.15 999.19 999.49 999.77 1000.23 1000.75 1001.23 1001.77 1002.27 1002.55 1002.77 1002.99 1003.25 1003.63 1003.91 1004.17 1004.51 1004.89 1005.11 1005.41 1005.63 1005.89 1006.09 1006.47 1007.01 1007.29 1007.43 1007.63 1007.95 1008.15 1008.41 1008.75 1009.05 1009.21 1009.41 1009.75 1010.07 1010.31 1010.59 1010.83 1011.09 1011.45 1011.77
994.85 995.11 995.21 995.33 995.67 995.81 996.19 996.51 996.51 996.63 996.65 996.67 996.71 997.11 997.29 997.39 997.59 997.83 998.15 998.27 998.51 998.63 998.83 999.01 999.73 1000.31 1000.71 1001.19 1001.73 1001.93 1002.11 1002.45 1002.71 1002.97 1003.37 1003.73 1004.11 1004.41 1004.65 1004.85 1005.07 1005.29 1005.61 1005.95 1006.35 1006.57 1006.75 1006.85 1007.17 1007.79 1008.15 1008.27 1008.55 1008.87 1009.07 1009.37 1009.55 1009.65 1009.95 1010.43 1010.73 1010.87 1011.25
994.87 995.25 995.73 996.07 996.03 996.19 996.29 996.35 996.41 996.55 996.61 996.71 996.71 996.95 997.05 997.23 997.37 997.51 997.83 998.05 998.05 998.31 998.21 998.45 999.15 999.79 1000.17 1000.61 1001.01 1001.39 1001.75 1002.05 1002.31 1002.63 1002.93 1003.41 1003.77 1003.97 1004.11 1004.35 1004.63 1004.89 1005.23 1005.49 1005.71 1006.01 1006.29 1006.55 1006.75 1007.09 1007.61 1008.03 1008.25 1008.47 1008.67 1008.79 1008.77 1008.85 1009.15 1009.49 1009.91 1010.29 1010.49
994.75 995.27 995.83 995.91 996.29 996.31 996.23 996.21 996.39 996.53 996.75 996.87 996.83 996.79 996.83 996.89 996.97 996.99 997.15 997.35 997.51 997.81 997.73 997.93 998.69 999.13 999.53 1000.05 1000.41 1000.89 1001.25 1001.69 1002.03 1002.33 1002.79 1002.89 1003.19 1003.51 1003.85 1004.07 1004.19 1004.49 1004.79 1005.05 1005.29 1005.59 1005.85 1006.23 1006.63 1006.69 1006.93 1007.39 1007.71 1008.01 1008.05 1008.03 1007.97 1008.25 1008.61 1008.87 1009.13 1009.43 1009.81
994.57 995.11 995.25 995.71 996.07 996.09 996.53 996.51 996.65 996.83 996.85 996.81 996.69 996.73 996.69 996.77 996.75 996.87 996.93 996.79 997.05 997.13 997.19 997.49 997.97 998.57 999.07 999.45 999.91 1000.31 1000.79 1001.21 1001.61 1002.07 1002.33 1002.57 1002.89 1003.05 1003.31 1003.59 1003.89 1004.17 1004.43 1004.71 1005.03 1005.19 1005.43 1005.93 1006.13 1006.27 1006.35 1006.61 1006.99 1007.29 1007.33 1007.33 1007.27 1007.73 1008.07 1008.37 1008.59 1008.81 1009.17
994.95 994.49 995.05 995.59 995.57 995.85 996.13 996.39 996.29 996.33 996.23 996.11 996.29 996.37 996.25 996.21 996.47 996.77 996.59 996.61 996.51 996.51 996.87 997.19 997.51 998.19 998.73 998.97 999.37 999.85 1000.31 1000.79 1001.31 1001.69 1002.03 1002.23 1002.37 1002.63 1002.97 1003.37 1003.67 1003.91 1004.17 1004.41 1004.37 1004.75 1005.29 1005.43 1005.67 1005.91 1005.89 1006.01 1006.43 1006.67 1006.65 1006.73 1006.77 1007.27 1007.65 1007.99 1008.27 1008.49 1008.69
995.57 995.17 994.81 994.75 994.59 995.13 995.03 994.89 995.03 995.43 995.59 995.57 995.55 995.53 995.55 995.63 995.97 996.07 996.03 996.09 996.15 996.45 996.65 997.11 997.35 997.69 998.23 998.57 998.95 999.39 999.85 1000.33 1000.85 1001.35 1001.61 1001.85 1002.17 1002.43 1002.73 1003.03 1003.35 1003.39 1003.43 1003.75 1004.13 1004.55 1004.75 1004.91 1005.21 1005.35 1005.57 1005.59 1005.75 1005.97 1006.03 1006.19 1006.31 1006.85 1007.19 1007.51 1007.81 1008.07 1008.31
995.75 995.55 995.35 994.95 995.13 994.75 994.71 994.77 994.85 995.03 995.23 995.01 995.01 995.07 995.21 995.57 995.55 995.77 995.99 996.01 996.23 996.27 996.73 996.93 997.25 997.45 997.85 998.25 998.57 999.01 999.43 999.93 1000.41 1000.95 1001.33 1001.63 1001.93 1002.23 1002.49 1002.69 1002.91 1003.21 1003.33 1003.51 1003.79 1004.07 1004.33 1004.47 1004.77 1004.87 1005.01 1005.11 1005.19 1005.47 1005.61 1005.45 1005.63 1006.25 1006.69 1007.03 1007.37 1007.69 1007.97
995.35 995.21 995.31 994.97 994.99 995.11 994.87 994.51 994.79 994.91 994.91 994.25 994.27 994.37 994.79 995.15 995.11 995.49 995.81 995.65 996.01 996.19 996.45 996.83 997.19 997.37 997.61 998.03 998.21 998.57 998.99 999.55 1000.13 1000.55 1000.91 1001.29 1001.67 1002.09 1002.39 1002.53 1002.73 1003.01 1003.01 1003.17 1003.27 1003.39 1003.67 1003.99 1004.05 1004.39 1004.59 1004.59 1004.81 1005.03 1005.13 1004.79 1005.03 1005.55 1006.05 1006.47 1006.89 1007.27 1007.67
994.65 994.59 994.93 994.69 993.93 994.03 993.99 994.15 994.31 994.59 994.71 994.59 994.37 994.19 994.21 994.23 994.65 995.07 995.39 995.77 995.85 996.09 996.33 996.65 997.13 997.23 997.33 997.73 997.89 998.21 998.59 999.07 999.65 1000.17 1000.53 1000.89 1001.41 1001.75 1001.99 1002.29 1002.55 1002.69 1002.69 1003.13 1003.13 1003.33 1003.49 1003.59 1003.67 1003.73 1004.05 1004.29 1004.43 1004.67 1004.59 1004.49 1004.49 1004.95 1005.33 1005.75 1006.21 1006.99 1007.27
993.93 994.31 994.65 994.69 994.21 993.73 994.59 994.67 994.45 994.43 994.65 994.93 994.97 994.69 994.39 994.07 994.13 994.75 995.29 995.57 995.69 996.05 996.37 996.55 996.85 996.81 997.05 997.43 997.57 997.81 998.19 998.63 999.17 999.85 1000.25 1000.59 1000.99 1001.23 1001.45 1001.65 1001.91 1002.27 1002.31 1002.79 1002.97 1003.03 1002.93 1003.05 1003.35 1003.37 1003.45 1003.71 1003.91 1003.87 1004.23 1004.09 1003.97 1004.43 1004.89 1005.31 1005.83 1006.13 1006.51
995.51 995.39 995.29 995.13 995.65 995.85 995.47 995.39 995.41 995.31 995.17 995.41 995.63 995.01 994.53 994.45 994.41 994.61 995.19 995.31 995.41 995.63 996.19 996.37 996.35 996.53 996.79 996.97 997.13 997.45 997.85 998.29 998.79 999.31 999.75 1000.17 1000.53 1000.77 1001.15 1001.33 1001.53 1001.71 1001.95 1002.19 1002.39 1002.51 1002.49 1002.69 1002.93 1003.05 1003.01 1002.99 1003.15 1003.31 1003.69 1003.69 1003.73 1004.05 1004.51 1005.05 1005.55 1005.97 1005.97
996.21 996.15 996.01 995.55 995.37 995.65 995.57 995.25 995.35 995.63 995.61 995.49 995.43 994.83 994.67 994.51 994.63 994.91 995.07 995.07 994.97 995.45 995.85 995.81 995.71 995.81 996.07 996.39 996.75 997.09 997.49 997.83 998.43 998.85 999.29 999.79 1000.11 1000.31 1000.51 1000.73 1001.11 1001.41 1001.71 1001.87 1001.97 1002.25 1002.27 1002.33 1002.49 1002.81 1002.83 1002.69 1002.87 1002.95 1003.13 1003.45 1003.45 1003.73 1004.29 1004.81 1005.37 1005.73 1005.77
995.91 996.03 996.35 996.19 996.03 995.75 995.71 995.53 995.33 995.55 995.49 995.33 995.11 994.89 994.49 994.39 994.73 995.07 995.05 994.99 995.05 995.25 994.95 994.81 995.07 995.43 995.79 996.11 996.49 996.89 997.23 997.51 998.01 998.59 998.95 999.27 999.71 999.91 1000.17 1000.29 1000.65 1000.93 1001.33 1001.67 1001.73 1001.95 1002.21 1002.23 1002.25 1002.39 1002.51 1002.43 1002.45 1002.57 1002.61 1002.71 1003.11 1003.25 1003.77 1004.39 1004.93 1005.41 1005.61
996.51 996.35 996.03 995.93 995.79 995.57 995.61 995.69 995.67 995.55 995.21 994.83 994.79 994.67 994.69 994.83 995.23 995.19 995.05 995.13 995.17 994.67 994.15 994.37 994.73 995.13 995.59 996.05 996.41 996.77 997.15 997.43 997.75 998.15 998.63 998.93 999.37 999.89 1000.11 1000.01 1000.15 1000.49 1000.83 1001.13 1001.47 1001.85 1002.09 1002.21 1002.25 1002.29 1002.25 1002.15 1002.09 1002.23 1002.37 1002.21 1002.43 1002.69 1003.39 1003.89 1004.57 1005.11 1005.31
997.31 997.23 996.97 996.57 995.99 995.59 995.87 996.13 996.21 996.05 995.79 995.19 995.27 995.35 995.15 995.07 995.37 995.35 995.23 995.41 995.05 994.23 994.01 994.23 994.49 994.91 995.43 995.91 996.37 996.73 997.11 997.43 997.77 998.13 998.31 998.75 999.03 999.59 1000.01 999.97 1000.13 1000.25 1000.47 1000.91 1001.31 1001.65 1001.97 1002.11 1002.23 1002.37 1002.41 1002.27 1002.09 1001.99 1002.01 1001.95 1002.05 1002.17 1002.85 1003.55 1004.09 1004.57 1004.97
997.35 997.35 997.07 996.45 996.03 996.15 996.33 996.43 996.15 996.21 995.93 995.87 995.89 995.73 995.51 995.57 995.85 995.51 995.51 995.47 994.53 994.25 994.13 994.29 994.55 994.87 995.41 995.89 996.25 996.61 996.95 997.27 997.59 997.81 998.05 998.45 998.85 999.25 999.75 999.93 1000.01 1000.17 1000.37 1000.63 1001.05 1001.47 1001.79 1001.89 1002.03 1002.23 1002.43 1002.57 1002.45 1002.11 1001.83 1001.71 1001.71 1001.91 1002.29 1003.07 1003.67 1004.03 1004.27
997.77 997.61 997.33 996.93 996.89 996.91 996.79 996.63 996.53 996.41 996.31 996.17 996.09 995.75 995.65 995.35 995.59 995.61 995.77 995.15 994.51 994.65 994.65 994.65 994.87 995.19 995.65 995.97 996.23 996.55 996.77 997.05 997.39 997.67 997.95 998.21 998.57 999.27 999.59 999.85 999.91 1000.37 1000.27 1000.47 1000.83 1001.15 1001.55 1001.73 1001.81 1002.21 1002.37 1002.51 1002.61 1002.39 1002.11 1001.75 1001.71 1001.75 1002.15 1002.49 1003.05 1003.51 1003.83
997.79 997.37 997.05 996.95 997.29 997.49 997.25 996.53 996.21 996.37 996.51 996.35 995.87 995.93 995.69 995.41 995.23 995.87 995.99 995.25 994.87 994.73 994.85 994.89 995.25 995.59 995.81 996.01 996.27 996.53 996.63 997.13 997.33 997.57 997.85 998.13 998.33 998.81 999.09 999.49 999.75 1000.09 1000.25 1000.39 1000.67 1000.95 1001.33 1001.61 1001.69 1001.99 1002.19 1002.45 1002.41 1002.39 1002.13 1001.85 1001.79 1001.81 1002.13 1002.73 1002.97 1003.21 1003.29
998.23 998.15 998.09 998.13 997.87 997.69 997.53 997.15 996.67 997.01 997.21 997.51 996.63 995.87 995.63 995.71 995.75 995.89 995.71 995.69 995.19 994.95 994.95 995.23 995.55 995.87 995.99 996.19 996.37 996.53 996.71 997.09 997.39 997.71 997.95 998.13 998.27 998.55 998.89 999.01 999.37 999.69 1000.05 1000.25 1000.49 1000.81 1001.13 1001.37 1001.65 1001.83 1002.07 1002.27 1002.21 1002.13 1001.99 1002.05 1001.97 1001.97 1002.37 1003.13 1003.55 1003.93 1004.21
998.57 998.51 998.33 998.25 998.07 997.89 997.85 997.55 997.35 997.57 997.81 998.03 997.41 996.91 996.51 996.37 996.23 995.87 995.63 995.51 995.31 995.39 995.57 995.73 995.97 996.23 996.39 996.41 996.53 996.77 996.85 997.11 997.17 997.57 997.95 998.25 998.31 998.51 998.53 998.73 998.89 999.37 999.83 1000.09 1000.29 1000.73 1001.01 1001.21 1001.47 1001.69 1001.81 1001.95 1001.75 1001.77 1001.95 1002.03 1002.43 1003.61 1003.69 1003.61 1003.53 1003.53 1003.77
998.71 998.67 998.49 998.45 998.33 998.21 998.45 998.41 998.09 998.13 998.07 998.05 997.65 997.45 997.39 997.37 997.03 996.55 996.11 995.91 995.69 995.87 996.13 996.27 996.27 996.25 996.43 996.45 996.53 996.79 996.83 996.95 997.15 997.37 997.73 998.21 999.65 1000.47 1000.67 1000.29 999.31 999.19 1000.15 1000.65 1000.57 1000.23 1000.25 1000.55 1000.85 1000.93 1000.89 1001.19 1001.87 1002.07 1002.41 1002.87 1003.93 1004.33 1004.71 1004.57 1004.63 1004.33 1003.85
998.97 998.75 998.61 998.29 998.19 998.15 998.35 998.35 998.45 998.57 998.55 998.41 998.17 998.05 997.95 997.69 997.37 997.09 996.77 996.47 996.19 995.95 996.39 996.49 996.55 996.59 996.63 996.47 996.47 996.49 996.89 996.95 996.97 997.17 997.47 998.07 999.27 1000.01 1000.85 1001.21 1000.71 1000.15 1000.23 1000.97 1001.25 1000.73 1000.47 1000.27 1001.17 1001.47 1001.33 1002.19 1002.71 1002.63 1002.89 1003.67 1004.19 1004.89 1005.01 1004.75 1004.55 1004.49 1004.51
999.21 998.95 998.69 998.35 998.55 998.69 998.75 998.67 998.55 998.55 998.71 998.67 998.45 998.37 998.25 998.07 997.73 997.45 997.19 996.89 996.57 996.27 996.33 996.55 996.99 997.15 997.29 997.39 997.55 997.25 996.87 996.83 996.85 997.11 997.27 997.51 998.45 999.29 1000.17 1000.83 1001.19 1001.77 1001.83 1001.55 1001.47 1001.21 1001.37 1001.57 1001.57 1001.43 1001.33 1001.71 1002.95 1003.65 1003.65 1004.05 1004.53 1004.59 1004.59 1004.57 1004.59 1004.57 1004.61
998.87 998.81 998.63 998.45 998.73 998.99 998.95 998.99 999.03 999.05 998.99 998.69 998.57 998.53 998.39 998.35 998.05 997.73 997.33 997.07 996.83 996.69 996.85 997.09 997.39 997.71 997.67 997.71 997.67 997.49 997.35 997.41 997.15 997.09 997.83 997.95 998.37 999.03 999.61 1000.31 1001.25 1001.97 1002.39 1002.49 1001.97 1001.83 1001.87 1001.83 1001.87 1001.89 1001.89 1002.01 1002.27 1002.75 1003.45 1003.79 1004.01 1004.15 1004.19 1004.25 1004.31 1004.33 1004.37
Wind_Speed
19 20 22 18 15 17 17 18 17 15 17 19 21 24 24 20 18 18 18 20 22 21 21 20 20 18 20 17 17 15 14 14 12 12 12 10 10 9 10 10 10 9 8 9 9 9 8 9 10 9 9 9 9 8 7 7 6 6 6 5 4 4 7
20 20 20 21 17 15 15 18 17 16 17 18 19 20 20 21 17 18 19 21 23 23 22 21 20 19 19 18 16 16 16 16 14 12 11 10 10 10 10 10 10 10 9 9 8 9 8 9 9 10 10 10 10 8 8 8 8 7 6 6 6 4 6
22 20 20 20 21 19 19 19 18 16 16 16 21 22 21 20 20 21 20 20 21 21 21 22 22 20 19 18 17 18 17 16 15 15 15 14 14 15 12 10 10 10 11 9 8 9 9 9 9 8 10 10 11 10 8 8 8 8 7 7 7 7 6
21 20 18 20 20 20 18 18 18 18 19 23 25 26 23 21 19 18 18 21 23 21 21 20 20 20 19 19 19 18 18 17 17 16 17 15 15 13 11 11 10 10 10 11 10 9 9 9 11 9 10 10 10 10 9 9 9 9 8 8 7 8 7
23 21 17 18 23 20 21 21 23 23 26 27 26 23 21 18 18 17 17 19 22 24 25 24 21 20 17 18 15 15 18 19 17 16 15 14 13 13 12 14 12 13 11 11 10 9 8 10 10 10 9 9 10 10 10 10 9 9 8 8 8 8 8
23 20 16 17 18 19 19 20 23 25 25 25 25 24 23 24 22 23 21 20 21 21 20 20 20 18 18 18 16 16 17 17 17 16 15 14 14 13 14 14 14 14 14 12 11 10 10 8 10 11 11 10 10 11 11 11 10 10 9 8 8 7 8
20 19 16 15 18 19 20 19 21 22 21 20 21 20 21 22 24 23 21 22 22 22 23 23 22 21 18 17 17 17 18 18 17 17 15 15 15 14 14 13 13 12 12 10 11 11 12 10 10 11 11 12 11 11 10 10 10 9 9 9 8 8 8
17 17 17 15 17 21 20 19 17 16 14 15 18 21 23 22 21 23 23 22 22 22 21 23 21 19 18 17 17 19 19 19 17 17 15 17 16 15 15 14 13 12 11 12 11 11 12 13 11 10 12 12 11 11 11 11 11 11 10 10 10 10 8
16 18 18 19 17 18 17 15 15 14 15 16 20 20 22 21 22 23 24 23 21 22 23 22 22 19 16 16 16 18 18 18 18 17 18 20 17 19 18 15 14 13 13 13 13 12 12 12 13 11 11 11 11 11 11 11 12 11 11 11 11 12 11
13 20 16 16 17 18 16 17 15 15 17 17 16 16 20 20 20 20 21 22 21 24 24 23 21 19 17 17 18 19 18 17 16 20 20 20 17 20 19 17 15 14 14 14 13 12 12 11 12 11 11 12 11 12 12 11 12 12 12 12 13 12 12
13 19 16 16 14 12 19 17 16 15 14 14 15 16 16 17 18 20 20 21 21 21 22 20 19 20 19 20 20 20 18 19 19 19 20 20 17 20 19 18 16 14 15 15 14 13 12 11 11 11 12 12 13 13 13 13 13 13 13 12 12 13 13
15 18 16 13 9 14 20 17 16 15 14 12 14 15 13 15 18 19 19 21 20 19 19 20 19 19 19 20 20 18 20 19 18 19 20 20 19 20 19 18 16 15 14 15 15 14 13 13 12 12 13 13 13 13 13 13 12 13 13 14 13 13 13
10 8 14 13 7 10 12 16 17 17 15 14 19 17 15 17 19 18 15 18 19 18 18 18 18 17 19 20 21 18 20 19 18 18 19 18 17 17 16 17 17 17 16 16 16 16 15 14 14 12 13 14 13 14 13 13 13 12 13 13 12 13 13
13 12 8 7 5 7 11 12 11 13 15 17 17 16 15 16 18 16 14 16 17 18 18 16 17 16 16 17 17 17 19 18 17 17 17 15 15 15 16 16 16 15 14 13 15 17 16 15 15 13 13 14 14 14 13 13 13 13 13 13 13 12 13
11 11 9 7 7 7 7 8 7 9 11 13 15 16 15 15 16 14 12 15 15 18 19 16 16 16 17 16 16 16 15 15 15 15 15 15 15 16 15 15 14 14 13 13 14 14 15 15 14 14 14 14 14 14 13 13 14 13 13 13 14 13 13
13 12 12 11 8 8 5 5 6 7 7 8 12 12 15 13 12 14 15 15 16 15 16 14 16 15 17 17 16 14 14 14 13 14 15 15 15 15 15 15 14 14 14 14 15 13 13 12 12 14 15 15 14 14 13 13 12 15 21 18 14 14 13
13 14 14 12 9 9 7 6 7 6 7 8 9 9 11 11 11 12 17 17 18 15 15 15 14 16 17 15 14 14 14 14 14 13 15 15 15 14 15 15 13 13 14 13 13 14 13 12 13 13 13 16 16 16 15 14 13 20 20 22 23 17 14
9 14 18 18 14 13 10 10 9 10 11 12 12 10 8 9 10 12 15 16 16 17 17 16 14 17 16 14 14 15 16 14 14 14 15 14 15 15 15 14 14 13 13 13 14 13 12 14 14 13 13 14 16 17 15 15 17 20 22 23 24 21 15
4 2 10 14 15 13 14 14 13 13 15 14 13 12 13 10 12 11 10 10 12 13 17 18 16 14 15 15 14 15 15 14 15 15 14 15 15 14 13 14 14 14 13 15 14 12 13 14 14 14 14 13 15 17 17 15 17 20 23 23 24 24 19
3 3 2 2 2 10 11 8 4 13 12 11 12 14 13 12 12 9 10 10 9 12 12 12 13 12 15 15 14 15 15 15 15 15 14 13 13 13 13 14 15 15 14 13 12 13 14 14 15 15 14 14 13 15 16 16 15 20 23 24 24 24 21
5 5 5 3 3 6 3 5 5 2 1 5 12 12 11 11 10 9 10 9 10 10 9 10 12 9 12 15 14 14 15 15 15 14 13 13 13 13 14 15 14 14 12 12 14 14 15 15 15 15 15 15 15 12 14 16 18 20 23 24 25 25 21
6 7 7 7 5 3 1 1 3 4 4 4 7 8 13 12 12 13 14 14 12 11 10 9 11 11 9 13 15 15 14 15 14 14 14 14 14 14 14 13 13 14 13 11 11 11 11 11 13 14 15 15 15 14 15 15 19 21 23 25 24 26 14
6 2 10 11 6 5 3 3 4 4 4 4 2 3 5 11 13 12 12 13 13 10 11 10 11 12 11 12 14 14 14 15 15 15 14 14 14 15 15 14 13 12 11 11 11 11 12 13 14 12 13 15 14 16 15 14 16 20 24 25 27 19 10
5 8 10 15 16 4 9 8 7 6 4 3 3 5 6 6 6 11 9 10 10 11 11 12 12 12 11 11 13 13 13 14 14 14 15 14 16 15 14 13 11 12 11 13 13 15 15 13 12 13 13 15 16 16 15 14 14 19 21 24 24 22 12
11 10 10 10 12 13 12 9 7 6 4 4 6 5 5 6 7 4 9 9 12 13 12 12 12 11 12 11 12 12 12 13 14 14 15 15 14 13 14 13 12 11 10 12 13 13 11 10 12 13 13 16 17 17 17 16 14 17 20 22 22 20 13
9 9 10 10 11 12 7 4 3 3 4 5 3 6 7 8 6 6 4 11 12 11 12 13 12 10 10 10 11 12 12 13 13 14 14 14 13 12 12 11 11 13 13 13 12 12 12 11 12 13 13 13 14 14 12 15 14 12 18 20 21 23 16
9 10 9 10 10 10 6 5 4 4 5 2 2 6 6 5 5 6 6 5 8 10 11 10 9 8 9 9 10 12 13 12 13 13 12 11 11 11 11 12 12 12 11 13 13 12 11 13 12 13 12 12 12 13 14 13 14 12 19 19 21 23 21
11 10 10 10 8 6 4 7 5 4 5 2 3 4 5 4 5 3 4 4 7 10 7 6 9 9 9 10 10 11 12 12 11 11 11 10 10 11 11 10 11 10 12 12 10 11 11 11 10 11 11 10 10 10 10 11 15 10 15 20 21 21 25
10 11 11 11 9 10 11 8 8 7 7 7 8 8 8 7 5 4 4 3 3 3 4 4 8 9 10 10 10 10 10 10 10 10 10 10 11 11 11 10 11 11 10 11 10 10 11 10 10 10 9 7 7 7 8 8 9 14 11 18 21 23 24
10 11 11 11 10 11 11 9 7 6 6 7 7 6 6 5 6 4 3 4 3 2 1 3 6 8 9 10 10 10 10 10 10 10 9 10 10 11 10 10 10 9 9 9 9 9 9 9 9 9 10 10 8 7 6 5 7 9 15 15 21 21 24
11 10 9 7 8 10 10 9 6 6 4 3 5 4 4 5 4 2 2 2 1 2 1 1 5 7 8 8 9 8 8 8 9 9 9 9 9 9 9 10 10 9 8 8 9 9 8 8 7 8 8 7 7 6 6 6 5 5 11 18 19 21 22
9 8 7 7 9 10 10 11 3 5 7 7 1 3 3 5 3 2 5 5 3 2 2 1 3 5 6 7 7 7 8 7 9 8 8 8 8 8 8 9 10 10 8 8 8 8 8 7 6 6 7 7 7 8 6 6 4 4 5 7 12 15 21
7 8 9 9 9 9 9 10 5 5 9 10 12 8 5 4 5 5 4 5 3 2 1 1 3 4 4 5 5 6 6 7 7 7 8 7 8 8 8 9 9 9 8 8 9 8 8 7 6 6 6 7 8 7 6 4 4 2 5 5 3 1 1
5 6 7 8 7 7 9 9 6 6 5 7 8 9 7 8 7 5 3 1 4 2 0 2 4 5 4 6 4 5 6 6 8 9 8 7 8 8 9 9 9 8 8 8 8 8 7 7 7 6 5 6 6 6 7 8 3 8 5 6 3 2 3
5 5 5 5 5 5 6 9 9 8 7 6 6 6 5 7 9 9 4 3 1 3 1 2 4 4 6 5 6 6 6 7 7 9 8 7 9 10 8 6 3 1 7 9 6 2 5 8 9 7 5 2 4 4 6 8 6 3 5 3 5 5 3
7 6 5 3 3 3 5 5 6 6 7 6 6 6 6 6 6 7 9 8 7 2 3 3 4 4 5 5 5 8 8 6 9 8 8 10 10 10 9 13 17 12 8 5 8 15 18 13 6 5 6 9 7 6 6 4 3 4 3 4 5 8 6
5 4 4 3 2 2 3 4 5 6 6 3 2 5 5 5 5 5 5 6 6 5 3 3 4 6 6 6 6 7 3 4 7 8 6 8 11 10 9 8 13 17 16 11 10 15 16 15 14 15 12 11 8 8 16 14 11 9 8 7 6 5 3
3 3 3 1 1 1 1 3 4 3 3 2 3 3 3 5 6 6 5 6 6 6 6 7 5 5 5 6 6 6 6 6 4 8 6 7 9 9 9 9 9 10 13 12 14 15 16 17 17 17 18 16 12 9 6 9 10 9 9 8 8 6 5
Wind_Direction
187 183 167 174 175 181 176 185 189 194 197 192 190 195 193 190 189 181 180 178 180 179 180 178 180 181 182 184 185 185 187 186 188 191 194 195 195 196 188 190 195 197 197 193 194 201 191 190 190 194 186 188 195 199 190 186 191 192 189 188 191 175 167
187 191 169 166 170 184 177 180 185 192 200 195 187 193 194 192 187 182 182 180 180 179 179 180 180 182 183 184 184 184 186 189 188 189 191 194 194 198 197 191 193 195 199 195 191 194 194 193 189 188 187 182 192 196 194 185 189 191 188 185 184 191 171
187 192 176 170 176 183 181 180 186 192 193 196 196 195 195 192 189 184 180 180 181 181 180 181 181 181 183 182 183 187 187 187 187 187 191 194 195 199 197 195 194 196 200 200 194 188 192 193 195 188 184 184 191 194 195 190 188 191 191 182 182 187 187
186 188 184 165 163 173 177 174 181 189 196 197 198 195 195 191 189 182 180 180 178 179 180 183 182 184 183 182 184 184 187 188 189 190 194 195 196 197 195 198 199 199 198 202 202 194 192 191 190 195 186 182 186 189 193 193 190 192 194 182 186 188 191
175 182 185 169 166 176 182 183 185 192 195 197 195 193 194 186 184 183 183 184 184 181 180 181 183 185 184 183 183 185 187 188 190 192 193 195 194 194 198 200 199 203 202 198 200 201 196 184 189 189 193 187 184 184 189 190 189 188 195 189 187 190 186
161 175 186 175 162 170 179 182 187 190 193 194 192 190 192 190 190 191 187 184 187 187 184 183 183 182 183 185 184 184 186 190 191 191 191 191 190 192 198 201 200 201 203 199 196 199 199 191 188 185 191 192 191 190 189 189 193 187 190 194 193 193 192
161 173 183 187 171 171 178 183 186 187 193 196 193 189 190 192 192 192 189 189 188 187 187 186 186 184 184 185 186 183 185 188 188 190 191 192 192 194 198 200 201 198 202 195 198 195 197 198 194 186 188 194 196 198 191 189 193 190 187 193 193 201 200
167 177 172 186 180 174 175 176 176 172 185 205 199 190 193 194 192 191 192 192 190 190 190 189 188 188 184 186 186 186 186 189 188 189 191 193 194 197 197 198 199 198 193 199 197 195 197 197 197 192 186 191 192 195 192 188 189 190 188 190 193 199 203
184 167 172 187 186 175 168 162 164 159 174 208 205 195 192 194 194 194 194 192 192 192 192 191 191 189 186 188 188 188 187 188 189 188 190 194 195 199 200 199 198 196 197 199 200 196 199 195 197 193 190 191 190 192 196 189 190 192 190 190 194 197 202
177 155 168 192 189 182 159 159 159 170 181 201 204 191 191 196 196 195 194 195 194 195 193 192 191 189 186 188 191 189 187 189 188 191 192 194 194 197 199 201 200 196 199 200 204 199 197 195 194 192 193 193 191 191 195 193 191 193 194 190 193 197 201
153 158 166 185 193 160 145 155 165 176 186 192 189 191 189 194 197 197 197 197 198 197 194 193 191 190 187 187 191 192 191 191 190 191 192 194 195 198 199 200 199 197 198 201 204 203 193 196 191 191 193 195 195 193 195 196 194 194 197 196 195 197 201
156 158 161 178 190 148 156 158 165 173 184 183 180 190 186 190 198 201 199 200 199 196 194 195 194 192 187 188 190 191 192 191 192 193 194 195 198 199 200 200 200 198 195 200 202 202 196 192 194 191 193 196 197 197 195 196 196 195 198 200 199 198 202
87 119 156 165 178 152 155 162 164 175 182 180 184 190 191 191 198 202 198 198 199 198 196 194 194 191 190 189 192 190 192 192 192 192 195 194 198 199 199 200 200 201 198 198 202 203 202 194 193 193 192 194 197 199 197 196 197 196 197 201 202 200 200
96 107 100 95 97 90 141 156 162 169 173 177 181 186 194 196 198 201 196 196 198 200 198 196 195 191 189 189 193 192 193 192 190 193 194 194 192 196 198 201 200 201 198 194 200 204 204 201 194 191 192 193 197 200 198 196 196 197 198 200 202 200 200
123 120 118 119 69 68 115 153 163 167 167 174 180 187 195 198 198 196 195 197 195 201 202 193 190 192 191 189 193 194 191 190 190 193 193 193 192 195 197 199 200 199 198 193 197 204 207 208 199 191 194 194 195 199 199 200 200 198 197 197 201 204 202
148 138 136 134 136 139 138 135 127 154 164 178 188 189 196 199 196 192 193 195 196 199 202 191 188 189 195 194 192 189 187 189 191 191 192 193 194 195 196 198 198 198 198 197 196 196 202 207 206 194 193 195 195 198 201 204 204 199 193 193 198 202 205
148 147 146 145 151 162 155 158 156 165 175 190 207 203 200 198 198 197 200 198 200 197 200 194 185 189 194 195 186 184 186 188 191 190 193 195 195 194 196 199 198 199 198 199 196 195 195 200 205 207 195 195 197 199 202 205 206 195 192 192 195 197 203
137 158 158 155 162 164 173 170 178 178 188 193 199 207 209 199 195 199 206 199 200 198 200 205 191 189 191 191 182 183 186 188 188 190 194 195 196 195 195 197 200 200 198 197 198 196 192 196 203 208 205 196 200 204 206 208 203 191 192 193 194 196 200
357 20 124 162 177 161 160 175 184 190 191 193 195 199 205 203 200 202 207 202 195 196 200 205 201 186 188 188 185 183 183 184 188 192 193 196 197 196 193 196 201 202 199 199 198 193 195 198 200 205 211 206 198 206 208 212 200 190 191 194 195 196 197
310 268 298 14 61 161 185 187 172 181 181 187 187 192 197 203 204 201 200 210 193 200 203 199 206 187 186 187 185 181 181 184 188 192 195 194 195 195 195 196 201 203 202 199 193 197 201 199 201 203 207 213 208 204 209 214 198 190 192 194 196 197 198
225 268 278 301 354 315 9 95 107 126 168 216 185 185 187 190 202 194 200 208 207 200 199 198 203 199 183 185 183 180 182 184 186 191 192 192 194 196 198 199 200 201 202 200 199 199 201 201 202 203 206 211 215 212 210 215 197 187 193 195 196 198 199
216 229 234 224 212 177 3 116 91 218 222 214 224 190 176 186 191 196 203 204 211 203 200 198 199 204 182 184 184 183 182 182 186 188 190 192 193 197 201 201 199 199 199 204 205 206 205 207 210 207 208 210 214 218 219 218 198 189 191 195 196 196 198
253 345 11 352 280 240 153 100 133 57 43 1 326 260 196 180 186 198 198 202 206 204 202 199 199 204 192 186 185 183 181 182 184 187 190 192 193 197 200 199 198 200 197 206 207 204 204 208 209 210 210 211 213 218 224 224 203 190 193 194 194 191 196
338 53 10 15 357 63 63 45 54 67 0 2 317 297 305 298 199 181 193 195 196 195 204 205 205 203 195 186 185 182 180 179 183 185 188 192 196 197 199 196 194 199 197 205 208 211 212 209 210 212 214 214 215 214 220 225 207 190 195 195 191 189 191
16 21 19 19 38 15 25 37 30 7 343 327 290 282 263 255 282 239 186 189 198 199 200 208 208 199 197 188 181 181 178 179 184 187 190 194 195 193 189 190 192 195 193 205 209 215 213 210 212 215 215 218 220 217 219 226 217 192 194 194 192 193 200
6 14 10 356 26 14 2 337 321 327 272 266 267 252 253 250 235 252 236 193 196 198 198 206 205 193 190 181 177 179 181 183 184 189 193 194 192 193 193 187 191 195 197 204 209 212 216 216 214 216 219 219 221 223 216 222 226 195 195 190 193 193 198
357 8 3 354 0 346 349 344 337 358 334 0 355 325 290 253 225 223 243 221 198 206 208 199 188 180 181 179 175 181 184 185 187 190 190 191 193 195 193 193 196 196 197 203 206 209 212 220 221 220 220 220 218 226 223 222 224 203 186 190 190 194 199
2 0 359 1 328 303 359 4 10 330 303 304 323 275 256 287 305 287 244 237 213 208 208 166 173 172 173 177 176 177 184 187 186 187 190 187 184 193 196 194 196 197 197 204 205 207 208 211 221 225 224 221 220 221 221 221 214 213 186 186 189 191 201
7 1 358 348 340 17 9 0 351 335 323 335 10 355 343 316 282 276 291 279 285 239 189 152 167 165 167 172 172 174 180 187 184 184 190 190 188 192 196 194 198 199 196 196 202 204 205 207 210 220 231 232 224 220 218 219 211 208 179 186 186 192 200
3 351 340 332 338 4 356 336 336 343 340 356 342 332 321 303 307 286 283 296 315 310 351 119 156 154 161 167 172 172 178 181 185 185 190 188 189 193 193 196 198 199 197 195 200 202 205 205 203 212 222 229 236 239 232 217 215 194 177 179 190 195 199
344 335 319 325 18 7 339 324 342 331 325 314 317 317 304 289 279 281 245 314 326 330 335 95 138 148 156 160 169 172 176 176 184 185 186 186 187 188 191 196 195 202 200 196 200 204 207 203 202 209 215 223 227 236 240 245 239 239 177 181 187 195 202
333 334 335 350 20 2 331 311 344 2 31 19 263 211 338 8 11 104 62 10 349 229 316 293 118 140 149 152 161 172 186 190 184 173 176 185 185 185 191 196 196 201 200 201 200 201 206 205 205 208 211 214 229 232 236 230 219 241 157 181 190 200 206
340 355 353 355 359 344 330 327 326 37 22 15 2 14 47 48 50 48 27 14 5 40 226 144 105 110 123 140 158 169 189 194 185 159 172 186 198 200 194 202 199 200 199 199 205 202 199 209 212 214 213 213 219 223 220 211 220 272 70 86 123 157 223
351 337 351 350 345 335 336 336 333 29 42 18 4 10 19 29 21 30 10 163 258 111 345 117 140 154 159 164 166 170 191 191 172 170 183 183 202 216 204 200 207 203 191 197 205 204 197 202 209 216 227 231 219 211 202 210 93 49 35 26 28 97 144
338 320 322 325 345 345 26 10 19 27 18 23 6 10 22 20 15 2 1 345 0 53 264 139 184 156 179 180 184 183 183 192 172 179 182 148 81 58 33 355 315 85 71 29 7 323 224 196 193 204 224 253 21 26 51 52 62 23 12 1 13 10 353
332 322 323 318 299 320 14 41 46 40 36 30 8 12 14 15 15 19 12 6 345 222 179 163 180 181 188 183 193 181 171 193 184 177 184 149 114 98 70 53 49 39 76 76 49 62 58 68 80 64 85 85 47 38 74 81 77 111 107 71 42 31 32
321 318 296 294 342 19 21 25 44 50 58 40 9 35 28 23 21 14 24 2 359 358 101 67 42 60 68 60 45 15 123 194 179 165 202 158 135 122 114 94 55 47 50 72 80 82 82 84 82 66 60 101 120 88 95 113 131 136 126 110 101 104 79
309 318 292 205 153 66 75 70 62 80 76 70 60 52 52 40 17 4 18 16 19 24 50 60 56 51 64 65 41 29 47 32 11 142 92 81 119 120 122 110 100 66 41 50 78 82 85 88 84 80 75 72 89 110 115 106 107 113 110 108 112 109 108